Flag for Germany Weather past 2 weeks in Kaufbeuren, Bavaria, Germany

Now
54 °F

Cool.


Feels Like: 54 °F
Forecast: 49 / 58 °F
Wind: 2 mph from Southwest

Location: Altenstadt Airport

Current Time: Aug 31, 2014 at 7:24:52 AM

Latest Report: Aug 31, 2014 at 6:20 AM


Visibility: N/A

Pressure: 30.04 "Hg

Humidity: 100%

Dew point: 54 °F

Location of KaufbeurenLocation

Historic Weather in Kaufbeuren — Graph

°F

Kaufbeuren temperature yesterday

Maximum temperature yesterday: 68 °F (at 3:20 PM)
Minimum temperature yesterday: 55 °F (at 11:20 PM)
Average temperature yesterday: 61 °F

Past Weeks' High & Low Weather Summary

 TemperatureHumidityPressure
High72 °F (Aug 29, 4:20 PM)100% (Aug 19, 7:20 AM)30.18 "Hg (Aug 19, 7:20 AM)
Low39 °F (Aug 25, 3:20 AM)46% (Aug 17, 4:20 PM)29.77 "Hg (Aug 26, 7:20 AM)
Average56 °F81%30.04 "Hg
* Reported Aug 16 6:20 AM — Aug 31 6:20 AM, Kaufbeuren, Weather by CustomWeather, © 2014

Note: Actual official high and low records may vary slightly from our data, if they occured in-between our weather recording intervals... More about our weather records

Advertising

Kaufbeuren weather history for previous 24 hours

 ConditionsComfort  
Time TempWeatherWind HumidityBarometerVisibility
6:20 AM
Aug 31
54 °FCool.2 mph100%30.04 "HgN/A
5:20 AM54 °FCool.2 mph94%30.04 "HgN/A
4:20 AM54 °FCool.3 mph94%30.04 "HgN/A
3:20 AM54 °FCool.5 mph94%30.07 "HgN/A
2:20 AM54 °FCool.5 mph100%30.07 "HgN/A
1:20 AM54 °FCool.3 mph100%30.09 "HgN/A
12:20 AM55 °FCool.3 mph100%30.09 "HgN/A
11:20 PM
Aug 30
55 °FCool.3 mph100%30.09 "HgN/A
10:20 PM57 °FCool.3 mph100%30.12 "HgN/A
9:20 PM61 °FCool.3 mph88%30.12 "HgN/A
8:20 PM61 °FCool.No wind94%30.09 "HgN/A
7:20 PM64 °FMild.2 mph78%30.09 "HgN/A
6:20 PM66 °FMild.3 mph78%30.09 "HgN/A
5:20 PM66 °FMild.5 mph68%30.09 "HgN/A
4:20 PM68 °FMild.5 mph64%30.09 "HgN/A
3:20 PM68 °FMild.3 mph60%30.12 "HgN/A
2:20 PM66 °FMild.6 mph73%30.12 "HgN/A
1:20 PM64 °FMild.5 mph73%30.15 "HgN/A
12:20 PM64 °FMild.3 mph73%30.15 "HgN/A
11:20 AM63 °FMild.6 mph83%30.15 "HgN/A
10:20 AM61 °FCool.2 mph88%30.15 "HgN/A
9:20 AM59 °FCool.5 mph94%30.15 "HgN/A
8:20 AM59 °FCool.5 mph94%30.15 "HgN/A
7:20 AM59 °FCool.6 mph88%30.15 "HgN/A
Weather by CustomWeather, © 2014

See weather overviewHow to use our weather pages